Volver al catálogo

CZ-2D DEB

ActivoSSO
NORAD 38176·DEBRIS·🇨🇳 China

Lanzado Nov 20, 2011 desde Jiuquan Satellite Launch Center

Loading…

Próximos Pases (próximas 24 horas)

TLE

ActualizadoSource: Space-Track

Época: Sep 14, 2026, 11:09 UTC

1 38176U 11068D   26257.46505537  .00001139  00000-0  28624-3 0  9997
2 38176  98.2934 259.0966 0101672 245.8470 113.2068 14.50162878774670

Sigue CZ-2D DEB en tiempo real con AllMySat

Download on the App Store